�����͌���@�\�w���ɂ��Y���u�C�̈ړ���,,,,,,,,
�@,Time,Lat.,,Long.,,Direction,Speed,
Date(yy/mm/dd),(hh:mm),(deg),(min),(deg),(min),(deg),(m/s),(knots)
2004/11/24,9:10,36,47.676,137,4.182,,,
2004/11/24,9:15,36,47.7,137,4.236,69.9,0.34,0.66
2004/11/24,9:20,36,47.7,137,4.266,100.1,0.18,0.34
2004/11/24,9:25,36,47.706,137,4.302,88.3,0.21,0.41
2004/11/24,9:30,36,47.724,137,4.338,69,0.22,0.44
2004/11/24,9:35,36,47.736,137,4.362,72.2,0.14,0.28
2004/11/24,9:40,36,47.748,137,4.404,80,0.25,0.49
2004/11/24,9:45,36,47.766,137,4.428,50.1,0.15,0.3
2004/11/24,9:55,36,47.784,137,4.5,77.4,0.2,0.38
2004/11/24,10:00,36,47.808,137,4.512,17.8,0.14,0.28
2004/11/24,10:10,36,47.838,137,4.56,55.8,0.14,0.28
2004/11/24,10:15,36,47.85,137,4.59,68.3,0.17,0.32
2004/11/24,10:20,36,47.868,137,4.602,23.8,0.11,0.21
2004/11/24,10:25,36,47.88,137,4.626,62.7,0.14,0.27
2004/11/24,10:30,36,47.886,137,4.656,80.4,0.16,0.32
2004/11/24,10:35,36,47.898,137,4.668,41.6,0.1,0.19
2004/11/24,10:40,36,47.898,137,4.704,90,0.21,0.42
2004/11/24,10:45,36,47.922,137,4.722,39.1,0.16,0.31
2004/11/24,10:55,36,47.934,137,4.752,80.4,0.08,0.16


�A,Time,Lat.,,Long.,,Direction,Speed,
Date(yy/mm/dd),(hh:mm),(deg),(min),(deg),(min),(deg),(m/s),(knots)
2004/11/24,11:10,36,47.784,137,4.308,,,
2004/11/24,11:15,36,47.814,137,4.326,32.1,0.19,0.37
2004/11/24,11:20,36,47.814,137,4.338,70.4,0.07,0.13
2004/11/24,11:25,36,47.832,137,4.374,57.2,0.21,0.4
2004/11/24,11:30,36,47.85,137,4.398,41.5,0.15,0.29
2004/11/24,11:40,36,47.862,137,4.434,54,0.09,0.17
2004/11/24,11:45,36,47.874,137,4.44,356.6,0.07,0.14
2004/11/24,11:50,36,47.886,137,4.47,62.7,0.16,0.31
2004/11/24,12:00,36,47.892,137,4.488,37.3,0.02,0.05
2004/11/24,12:05,36,47.91,137,4.518,53.8,0.19,0.37
2004/11/24,12:10,36,47.934,137,4.572,63.7,0.33,0.65
2004/11/24,12:15,36,47.94,137,4.614,80.7,0.23,0.45
2004/11/24,12:20,36,47.952,137,4.644,64,0.17,0.33
2004/11/24,12:25,36,47.952,137,4.68,90,0.19,0.37
2004/11/24,12:30,36,47.97,137,4.716,63,0.22,0.43
2004/11/24,12:35,36,47.976,137,4.74,77.6,0.13,0.25
2004/11/24,12:40,36,47.994,137,4.782,66.7,0.26,0.5
2004/11/24,12:45,36,48.006,137,4.812,68.3,0.17,0.34
2004/11/24,12:50,36,48.012,137,4.848,82.1,0.2,0.39
2004/11/24,12:55,36,48.024,137,4.866,42,0.13,0.25
2004/11/24,13:00,36,48.036,137,4.896,58.9,0.19,0.37
2004/11/24,13:05,36,48.042,137,4.92,64.1,0.14,0.27
2004/11/24,13:10,36,48.054,137,4.938,42,0.13,0.25
2004/11/24,13:15,36,48.066,137,4.968,58.9,0.19,0.37
2004/11/24,13:25,36,48.09,137,5.022,66,0.18,0.35
2004/11/24,13:30,36,48.102,137,5.046,63.4,0.17,0.32
2004/11/24,13:35,36,48.114,137,5.07,63.4,0.17,0.32


�B,Time,Lat.,,Long.,,Direction,Speed,
Date(yy/mm/dd),(hh:mm),(deg),(min),(deg),(min),(deg),(m/s),(knots)
2004/11/24,9:10,36,47.64,137,4.242,,,
2004/11/24,9:15,36,47.64,137,4.272,100.1,0.18,0.34
2004/11/24,9:20,36,47.634,137,4.296,116.5,0.15,0.29
2004/11/24,9:25,36,47.622,137,4.32,127.7,0.17,0.33
2004/11/24,9:30,36,47.628,137,4.338,86.3,0.1,0.19
2004/11/24,9:35,36,47.634,137,4.368,87.9,0.17,0.34
2004/11/24,9:40,36,47.634,137,4.404,98.3,0.21,0.41
2004/11/24,9:45,36,47.634,137,4.422,99,0.08,0.16
2004/11/24,9:50,36,47.634,137,4.446,96.2,0.12,0.23
2004/11/24,10:00,36,47.64,137,4.512,88.1,0.17,0.34
2004/11/24,10:05,36,47.64,137,4.524,106.3,0.05,0.09
2004/11/24,10:10,36,47.64,137,4.548,96.2,0.12,0.23
2004/11/24,10:15,36,47.64,137,4.584,93.8,0.19,0.37
2004/11/24,10:20,36,47.646,137,4.608,78.3,0.12,0.23
2004/11/24,10:30,36,47.664,137,4.656,69.8,0.13,0.26
2004/11/24,10:35,36,47.67,137,4.668,60.6,0.08,0.15
2004/11/24,10:45,36,47.688,137,4.71,74.8,0.12,0.24
2004/11/24,10:55,36,47.706,137,4.746,72.2,0.11,0.21


�C,Time,Lat.,,Long.,,Direction,Speed,
Date(yy/mm/dd),(hh:mm),(deg),(min),(deg),(min),(deg),(m/s),(knots)
2004/11/24,11:15,36,47.856,137,4.23,,,
2004/11/24,11:20,36,47.868,137,4.242,51.6,0.08,0.16
2004/11/24,11:25,36,47.892,137,4.254,9.3,0.15,0.29
2004/11/24,11:30,36,47.904,137,4.26,350.3,0.08,0.15
2004/11/24,11:35,36,47.916,137,4.266,359.2,0.09,0.17
2004/11/24,11:40,36,47.928,137,4.278,21.7,0.1,0.19
2004/11/24,11:45,36,47.94,137,4.29,23.8,0.08,0.16
2004/11/24,11:50,36,47.94,137,4.302,90,0.03,0.06
2004/11/24,11:55,36,47.946,137,4.314,41.4,0.05,0.1
2004/11/24,12:00,36,47.958,137,4.326,23.8,0.08,0.16
2004/11/24,12:05,36,47.97,137,4.344,46.5,0.11,0.21
2004/11/24,12:10,36,47.97,137,4.356,90,0.04,0.08
2004/11/24,12:15,36,47.982,137,4.386,64,0.17,0.33
2004/11/24,12:20,36,47.976,137,4.398,132.2,0.06,0.11
2004/11/24,12:30,36,48,137,4.44,58.8,0.12,0.24
2004/11/24,12:35,36,48,137,4.452,100.6,0.05,0.1
2004/11/24,12:40,36,48.006,137,4.476,77.6,0.13,0.25
2004/11/24,12:50,36,48.024,137,4.518,66.7,0.12,0.23
2004/11/24,12:55,36,48.036,137,4.536,42,0.13,0.25
2004/11/24,13:00,36,48.042,137,4.56,64.1,0.14,0.27
2004/11/24,13:05,36,48.054,137,4.584,52,0.16,0.31
2004/11/24,13:10,36,48.054,137,4.608,79.3,0.13,0.25
2004/11/24,13:15,36,48.078,137,4.638,43.3,0.24,0.46
2004/11/24,13:20,36,48.084,137,4.668,69.5,0.17,0.34
2004/11/24,13:30,36,48.12,137,4.71,49.4,0.17,0.33
